18-05-2022, 00:00:06,    224,    0.8,   11.9,   0.00,   0.00, 1014.1,   94.6, -999.0
18-05-2022, 00:00:16,    234,    1.3,   11.8,   0.00,   0.00, 1014.1,   94.7, -999.0
18-05-2022, 00:00:26,    235,    0.9,   11.9,   0.00,   0.00, 1014.1,   94.4, -999.0
18-05-2022, 00:00:36,    234,    0.1,   11.7,   0.00,   0.00, 1014.0,   94.3, -999.0
18-05-2022, 00:00:46,    235,    0.0,   11.7,   0.00,   0.00, 1014.0,   94.2, -999.0
18-05-2022, 00:00:56,    234,    0.0,   11.7,   0.00,   0.00, 1014.0,   94.2, -999.0
18-05-2022, 00:01:06,    235,    0.0,   11.7,   0.00,   0.00, 1014.0,   94.2, -999.0
18-05-2022, 00:01:15,    235,    0.0,   11.7,   0.00,   0.00, 1014.0,   94.2, -999.0
18-05-2022, 00:01:26,    235,    0.0,   11.7,   0.00,   0.00, 1014.0,   94.2, -999.0
18-05-2022, 00:01:36,    234,    0.0,   11.7,   0.00,   0.00, 1014.0,   94.2, -999.0
18-05-2022, 00:01:45,    235,    0.0,   11.7,   0.00,   0.00, 1014.0,   94.2, -999.0
18-05-2022, 00:01:55,    233,    0.0,   11.7,   0.00,   0.00, 1014.0,   94.0, -999.0
18-05-2022, 00:02:06,    177,    0.0,   11.7,   0.00,   0.00, 1014.0,   94.2, -999.0
18-05-2022, 00:02:15,    177,    0.0,   11.6,   0.00,   0.00, 1014.0,   94.1, -999.0
18-05-2022, 00:02:25,    177,    0.0,   11.7,   0.00,   0.00, 1014.0,   94.2, -999.0
18-05-2022, 00:02:35,    177,    0.0,   11.7,   0.00,   0.00, 1014.0,   94.2, -999.0
18-05-2022, 00:02:45,    177,    0.0,   11.7,   0.00,   0.00, 1014.0,   94.1, -999.0
18-05-2022, 00:02:55,    176,    0.0,   11.7,   0.00,   0.00, 1014.0,   94.2, -999.0
18-05-2022, 00:03:05,    177,    0.0,   11.7,   0.00,   0.00, 1014.0,   94.1, -999.0
18-05-2022, 00:03:15,    177,    0.0,   11.7,   0.00,   0.00, 1014.0,   94.3, -999.0
18-05-2022, 00:03:25,    177,    0.1,   11.7,   0.00,   0.00, 1014.1,   94.5, -999.0
18-05-2022, 00:03:35,    177,    0.0,   11.7,   0.00,   0.00, 1014.0,   94.2, -999.0
18-05-2022, 00:03:45,    177,    0.0,   11.7,   0.00,   0.00, 1014.0,   94.1, -999.0
18-05-2022, 00:03:55,    177,    0.0,   11.7,   0.00,   0.00, 1014.0,   94.1, -999.0
18-05-2022, 00:04:05,    177,    0.0,   11.7,   0.00,   0.00, 1013.9,   94.1, -999.0
18-05-2022, 00:04:15,    190,    0.2,   11.7,   0.00,   0.00, 1014.0,   94.3, -999.0
18-05-2022, 00:04:24,    191,    0.0,   11.7,   0.00,   0.00, 1014.0,   94.0, -999.0
18-05-2022, 00:04:35,    191,    0.0,   11.7,   0.00,   0.00, 1014.0,   94.0, -999.0
18-05-2022, 00:04:45,    192,    0.1,   11.7,   0.00,   0.00, 1014.0,   94.2, -999.0
18-05-2022, 00:04:54,    192,    0.2,   11.7,   0.00,   0.00, 1014.0,   94.3, -999.0
18-05-2022, 00:05:04,    192,    0.0,   11.7,   0.00,   0.00, 1014.0,   94.0, -999.0
18-05-2022, 00:05:14,    192,    0.0,   11.7,   0.00,   0.00, 1014.0,   94.1, -999.0
18-05-2022, 00:05:24,    192,    0.0,   11.7,   0.00,   0.00, 1014.0,   94.1, -999.0
18-05-2022, 00:05:34,    193,    0.0,   11.7,   0.00,   0.00, 1014.0,   94.1, -999.0
18-05-2022, 00:05:44,    193,    0.0,   11.7,   0.00,   0.00, 1014.0,   94.0, -999.0
18-05-2022, 00:05:54,    193,    0.0,   11.7,   0.00,   0.00, 1013.9,   94.0, -999.0
18-05-2022, 00:06:04,    192,    0.0,   11.7,   0.00,   0.00, 1013.9,   94.0, -999.0
18-05-2022, 00:06:14,    213,    0.7,   11.7,   0.00,   0.00, 1014.0,   94.1, -999.0
18-05-2022, 00:06:24,    212,    0.9,   11.7,   0.00,   0.00, 1014.1,   94.2, -999.0
18-05-2022, 00:06:34,    194,    0.4,   11.7,   0.00,   0.00, 1014.1,   94.1, -999.0
18-05-2022, 00:06:44,    194,    0.2,   11.7,   0.00,   0.00, 1014.0,   93.9, -999.0
18-05-2022, 00:06:54,    194,    0.0,   11.7,   0.00,   0.00, 1014.0,   93.7, -999.0
18-05-2022, 00:07:04,    201,    0.0,   11.6,   0.00,   0.00, 1014.0,   93.9, -999.0
18-05-2022, 00:07:14,    202,    0.0,   11.6,   0.00,   0.00, 1014.0,   93.8, -999.0
18-05-2022, 00:07:24,    205,    0.0,   11.6,   0.00,   0.00, 1014.0,   93.7, -999.0
18-05-2022, 00:07:34,    205,    0.0,   11.6,   0.00,   0.00, 1014.0,   93.7, -999.0
18-05-2022, 00:07:44,    205,    0.0,   11.7,   0.00,   0.00, 1014.0,   93.7, -999.0
18-05-2022, 00:07:53,    205,    0.0,   11.6,   0.00,   0.00, 1014.0,   93.7, -999.0
18-05-2022, 00:08:03,    205,    0.0,   11.6,   0.00,   0.00, 1014.0,   93.6, -999.0
18-05-2022, 00:08:14,    199,    0.1,   11.6,   0.00,   0.00, 1014.1,   93.7, -999.0
18-05-2022, 00:08:23,    202,    0.2,   11.6,   0.00,   0.00, 1014.1,   93.7, -999.0
18-05-2022, 00:08:33,    201,    0.9,   11.8,   0.00,   0.00, 1014.1,   94.1, -999.0
18-05-2022, 00:08:43,    199,    0.5,   11.8,   0.00,   0.00, 1014.1,   94.1, -999.0
18-05-2022, 00:08:53,    199,    0.0,   11.7,   0.00,   0.00, 1014.1,   93.7, -999.0
18-05-2022, 00:09:03,    199,    0.0,   11.6,   0.00,   0.00, 1014.0,   93.6, -999.0
18-05-2022, 00:09:13,    199,    0.0,   11.6,   0.00,   0.00, 1014.1,   93.7, -999.0
18-05-2022, 00:09:23,    201,    0.0,   11.5,   0.00,   0.00, 1014.1,   93.5, -999.0
18-05-2022, 00:09:33,    203,    0.0,   11.6,   0.00,   0.00, 1014.1,   93.6, -999.0
18-05-2022, 00:09:43,    202,    0.0,   11.5,   0.00,   0.00, 1014.1,   93.6, -999.0
18-05-2022, 00:09:53,    203,    0.0,   11.6,   0.00,   0.00, 1014.1,   93.4, -999.0
18-05-2022, 00:10:03,    201,    0.0,   11.5,   0.00,   0.00, 1014.1,   93.5, -999.0
18-05-2022, 00:10:13,    201,    0.0,   11.6,   0.00,   0.00, 1014.1,   93.5, -999.0
18-05-2022, 00:10:23,    202,    0.0,   11.6,   0.00,   0.00, 1014.1,   93.4, -999.0
18-05-2022, 00:10:32,    202,    0.0,   11.6,   0.00,   0.00, 1014.1,   93.5, -999.0
18-05-2022, 00:10:43,    202,    0.0,   11.6,   0.00,   0.00, 1014.1,   93.4, -999.0
18-05-2022, 00:10:53,    202,    0.0,   11.5,   0.00,   0.00, 1014.1,   93.4, -999.0
18-05-2022, 00:11:02,    203,    0.0,   11.5,   0.00,   0.00, 1014.1,   93.5, -999.0
18-05-2022, 00:11:12,    203,    0.0,   11.6,   0.00,   0.00, 1014.1,   93.4, -999.0
18-05-2022, 00:11:23,    203,    0.0,   11.6,   0.00,   0.00, 1014.1,   93.4, -999.0
18-05-2022, 00:11:32,    203,    0.0,   11.6,   0.00,   0.00, 1014.1,   93.4, -999.0
18-05-2022, 00:11:42,    203,    0.0,   11.6,   0.00,   0.00, 1014.1,   93.4, -999.0
18-05-2022, 00:11:52,    203,    0.0,   11.5,   0.00,   0.00, 1014.0,   93.4, -999.0
18-05-2022, 00:12:02,    203,    0.0,   11.5,   0.00,   0.00, 1014.1,   93.3, -999.0
18-05-2022, 00:12:12,    203,    0.0,   11.5,   0.00,   0.00, 1014.1,   93.3, -999.0
18-05-2022, 00:12:22,    203,    0.0,   11.5,   0.00,   0.00, 1014.1,   93.3, -999.0
18-05-2022, 00:12:32,    203,    0.0,   11.5,   0.00,   0.00, 1014.1,   93.3, -999.0
18-05-2022, 00:12:42,    201,    0.0,   11.5,   0.00,   0.00, 1014.1,   93.3, -999.0
18-05-2022, 00:12:52,    205,    0.0,   11.6,   0.00,   0.00, 1014.1,   93.2, -999.0
18-05-2022, 00:13:02,    204,    0.0,   11.6,   0.00,   0.00, 1014.1,   93.3, -999.0
18-05-2022, 00:13:12,    204,    0.0,   11.5,   0.00,   0.00, 1014.1,   93.2, -999.0
18-05-2022, 00:13:22,    205,    0.0,   11.5,   0.00,   0.00, 1014.1,   93.2, -999.0
18-05-2022, 00:13:32,    205,    0.0,   11.5,   0.00,   0.00, 1014.1,   93.1, -999.0
18-05-2022, 00:13:41,    205,    0.0,   11.5,   0.00,   0.00, 1014.1,   93.1, -999.0
18-05-2022, 00:13:52,    204,    0.0,   11.5,   0.00,   0.00, 1014.1,   93.1, -999.0
18-05-2022, 00:14:02,    203,    0.2,   11.6,   0.00,   0.00, 1014.1,   93.3, -999.0
18-05-2022, 00:14:11,    204,    0.3,   11.6,   0.00,   0.00, 1014.1,   93.3, -999.0
18-05-2022, 00:14:21,    204,    0.0,   11.4,   0.00,   0.00, 1014.1,   93.0, -999.0
18-05-2022, 00:14:31,    204,    0.0,   11.5,   0.00,   0.00, 1014.1,   93.0, -999.0
18-05-2022, 00:14:41,    205,    0.0,   11.5,   0.00,   0.00, 1014.1,   93.0, -999.0
18-05-2022, 00:14:51,    197,    0.0,   11.5,   0.00,   0.00, 1014.1,   93.0, -999.0
18-05-2022, 00:15:01,    200,    0.3,   11.5,   0.00,   0.00, 1014.1,   93.1, -999.0
18-05-2022, 00:15:11,    201,    0.0,   11.5,   0.00,   0.00, 1014.0,   93.0, -999.0
18-05-2022, 00:15:21,    201,    0.0,   11.6,   0.00,   0.00, 1014.0,   93.0, -999.0
18-05-2022, 00:15:31,    201,    0.0,   11.5,   0.00,   0.00, 1014.0,   93.0, -999.0
18-05-2022, 00:15:41,    201,    0.0,   11.5,   0.00,   0.00, 1014.1,   93.1, -999.0
18-05-2022, 00:15:51,    200,    0.3,   11.5,   0.00,   0.00, 1014.1,   93.2, -999.0
18-05-2022, 00:16:01,    200,    0.0,   11.5,   0.00,   0.00, 1014.1,   92.9, -999.0
18-05-2022, 00:16:11,    200,    0.0,   11.5,   0.00,   0.00, 1014.0,   92.8, -999.0
18-05-2022, 00:16:21,    200,    0.0,   11.4,   0.00,   0.00, 1014.1,   92.9, -999.0
18-05-2022, 00:16:31,    201,    0.0,   11.5,   0.00,   0.00, 1014.0,   92.9, -999.0
18-05-2022, 00:16:41,    198,    0.4,   11.5,   0.00,   0.00, 1014.1,   93.2, -999.0
18-05-2022, 00:16:50,    198,    0.0,   11.5,   0.00,   0.00, 1014.1,   93.0, -999.0
18-05-2022, 00:17:01,    198,    0.0,   11.5,   0.00,   0.00, 1014.0,   92.9, -999.0
18-05-2022, 00:17:10,    198,    0.0,   11.4,   0.00,   0.00, 1014.0,   92.8, -999.0
18-05-2022, 00:17:20,    198,    0.0,   11.5,   0.00,   0.00, 1014.1,   92.9, -999.0
18-05-2022, 00:17:31,    198,    0.0,   11.4,   0.00,   0.00, 1014.0,   92.8, -999.0
18-05-2022, 00:17:40,    199,    0.2,   11.4,   0.00,   0.00, 1014.1,   92.9, -999.0
18-05-2022, 00:17:50,    199,    0.1,   11.5,   0.00,   0.00, 1014.1,   92.8, -999.0
18-05-2022, 00:18:00,    198,    0.2,   11.4,   0.00,   0.00, 1014.1,   92.9, -999.0
18-05-2022, 00:18:10,    204,    0.9,   11.4,   0.00,   0.00, 1014.1,   93.0, -999.0
18-05-2022, 00:18:20,    205,    0.3,   11.5,   0.00,   0.00, 1014.1,   93.0, -999.0
18-05-2022, 00:18:30,    210,    0.9,   11.5,   0.00,   0.00, 1014.1,   93.1, -999.0
18-05-2022, 00:18:40,    192,    1.1,   11.5,   0.00,   0.00, 1014.1,   92.9, -999.0
18-05-2022, 00:18:50,    182,    0.9,   11.5,   0.00,   0.00, 1014.1,   93.1, -999.0
18-05-2022, 00:19:00,    233,    0.6,   11.5,   0.00,   0.00, 1014.1,   93.0, -999.0
18-05-2022, 00:19:10,    187,    0.5,   11.4,   0.00,   0.00, 1014.1,   92.7, -999.0
18-05-2022, 00:19:20,    187,    0.7,   11.5,   0.00,   0.00, 1014.1,   92.9, -999.0
18-05-2022, 00:19:30,    159,    1.5,   11.4,   0.00,   0.00, 1014.1,   92.8, -999.0
18-05-2022, 00:19:40,    199,    0.6,   11.5,   0.00,   0.00, 1014.1,   92.8, -999.0
18-05-2022, 00:19:49,    220,    0.5,   11.4,   0.00,   0.00, 1014.1,   92.9, -999.0
18-05-2022, 00:20:00,    213,    0.9,   11.4,   0.00,   0.00, 1014.1,   92.6, -999.0
18-05-2022, 00:20:10,    200,    0.9,   11.5,   0.00,   0.00, 1014.1,   92.7, -999.0
18-05-2022, 00:20:19,    201,    0.9,   11.4,   0.00,   0.00, 1014.1,   92.7, -999.0
18-05-2022, 00:20:29,    201,    0.2,   11.4,   0.00,   0.00, 1014.0,   92.5, -999.0
18-05-2022, 00:20:40,    201,    0.2,   11.4,   0.00,   0.00, 1014.1,   92.5, -999.0
18-05-2022, 00:20:49,    201,    0.0,   11.3,   0.00,   0.00, 1014.0,   92.4, -999.0
18-05-2022, 00:20:59,    227,    0.6,   11.5,   0.00,   0.00, 1014.1,   92.5, -999.0
18-05-2022, 00:21:09,    208,    0.6,   11.4,   0.00,   0.00, 1014.1,   92.7, -999.0
18-05-2022, 00:21:19,    207,    0.4,   11.4,   0.00,   0.00, 1014.1,   92.6, -999.0
18-05-2022, 00:21:29,    208,    0.0,   11.3,   0.00,   0.00, 1014.0,   92.2, -999.0
18-05-2022, 00:21:39,    249,    0.0,   11.4,   0.00,   0.00, 1014.1,   92.1, -999.0
18-05-2022, 00:21:49,    217,    0.8,   11.4,   0.00,   0.00, 1014.2,   92.7, -999.0
18-05-2022, 00:21:59,    213,    0.0,   11.4,   0.00,   0.00, 1014.1,   92.2, -999.0
18-05-2022, 00:22:09,    214,    0.0,   11.3,   0.00,   0.00, 1014.1,   92.4, -999.0
18-05-2022, 00:22:19,    214,    0.0,   11.4,   0.00,   0.00, 1014.0,   92.3, -999.0
18-05-2022, 00:22:29,    241,    1.7,   11.4,   0.00,   0.00, 1014.2,   92.6, -999.0
18-05-2022, 00:22:39,    224,    1.9,   11.4,   0.00,   0.00, 1014.2,   92.6, -999.0
18-05-2022, 00:22:49,    226,    1.5,   11.4,   0.00,   0.00, 1014.2,   92.6, -999.0
18-05-2022, 00:22:58,    247,    1.1,   11.5,   0.00,   0.00, 1014.2,   92.4, -999.0
18-05-2022, 00:23:09,    232,    1.4,   11.4,   0.00,   0.00, 1014.2,   92.3, -999.0
18-05-2022, 00:23:19,    225,    0.2,   11.4,   0.00,   0.00, 1014.2,   92.3, -999.0
18-05-2022, 00:23:28,    227,    0.0,   11.3,   0.00,   0.00, 1014.1,   92.0, -999.0
18-05-2022, 00:23:38,    237,    0.6,   11.4,   0.00,   0.00, 1014.2,   92.3, -999.0
18-05-2022, 00:23:48,    227,    1.2,   11.5,   0.00,   0.00, 1014.2,   92.2, -999.0
18-05-2022, 00:23:58,    227,    0.5,   11.4,   0.00,   0.00, 1014.2,   92.2, -999.0
18-05-2022, 00:24:08,    227,    0.0,   11.4,   0.00,   0.00, 1014.1,   92.1, -999.0
18-05-2022, 00:24:18,    227,    0.0,   11.3,   0.00,   0.00, 1014.1,   91.9, -999.0
18-05-2022, 00:24:28,    227,    0.0,   11.3,   0.00,   0.00, 1014.1,   91.9, -999.0
18-05-2022, 00:24:38,    228,    0.0,   11.3,   0.00,   0.00, 1014.1,   91.9, -999.0
18-05-2022, 00:24:48,    227,    0.0,   11.3,   0.00,   0.00, 1014.1,   91.9, -999.0
18-05-2022, 00:24:58,    228,    0.0,   11.3,   0.00,   0.00, 1014.1,   92.0, -999.0
18-05-2022, 00:25:08,    234,    0.4,   11.4,   0.00,   0.00, 1014.2,   92.1, -999.0
18-05-2022, 00:25:18,    234,    1.6,   11.3,   0.00,   0.00, 1014.2,   92.2, -999.0
18-05-2022, 00:25:28,    234,    0.0,   11.3,   0.00,   0.00, 1014.1,   91.9, -999.0
18-05-2022, 00:25:38,    234,    0.0,   11.2,   0.00,   0.00, 1014.1,   91.8, -999.0
18-05-2022, 00:25:48,    213,    0.0,   11.3,   0.00,   0.00, 1014.1,   91.9, -999.0
18-05-2022, 00:25:58,    202,    0.2,   11.4,   0.00,   0.00, 1014.2,   92.3, -999.0
18-05-2022, 00:26:07,    203,    0.2,   11.3,   0.00,   0.00, 1014.2,   92.2, -999.0
18-05-2022, 00:26:18,    201,    0.0,   11.3,   0.00,   0.00, 1014.1,   91.8, -999.0
18-05-2022, 00:26:28,    205,    0.1,   11.3,   0.00,   0.00, 1014.2,   91.9, -999.0
18-05-2022, 00:26:37,    202,    0.1,   11.3,   0.00,   0.00, 1014.2,   92.0, -999.0
18-05-2022, 00:26:47,    204,    0.0,   11.3,   0.00,   0.00, 1014.1,   91.8, -999.0
18-05-2022, 00:26:57,    209,    0.1,   11.3,   0.00,   0.00, 1014.2,   92.0, -999.0
18-05-2022, 00:27:07,    220,    1.2,   11.4,   0.00,   0.00, 1014.2,   92.1, -999.0
18-05-2022, 00:27:17,    196,    0.9,   11.4,   0.00,   0.00, 1014.2,   92.2, -999.0
18-05-2022, 00:27:27,    247,    0.6,   11.4,   0.00,   0.00, 1014.2,   92.1, -999.0
18-05-2022, 00:27:37,    238,    0.3,   11.3,   0.00,   0.00, 1014.2,   91.9, -999.0
18-05-2022, 00:27:47,    237,    0.0,   11.3,   0.00,   0.00, 1014.1,   91.6, -999.0
18-05-2022, 00:27:57,    237,    0.0,   11.2,   0.00,   0.00, 1014.1,   91.6, -999.0
18-05-2022, 00:28:07,    224,    0.0,   11.2,   0.00,   0.00, 1014.1,   91.6, -999.0
18-05-2022, 00:28:17,    208,    0.0,   11.2,   0.00,   0.00, 1014.1,   91.6, -999.0
18-05-2022, 00:28:27,    209,    1.3,   11.3,   0.00,   0.00, 1014.2,   91.9, -999.0
18-05-2022, 00:28:37,    204,    1.4,   11.2,   0.00,   0.00, 1014.3,   91.9, -999.0
18-05-2022, 00:28:47,    206,    0.4,   11.2,   0.00,   0.00, 1014.2,   91.6, -999.0
18-05-2022, 00:28:57,    203,    0.0,   11.2,   0.00,   0.00, 1014.1,   91.4, -999.0
18-05-2022, 00:29:06,    205,    0.2,   11.2,   0.00,   0.00, 1014.2,   91.6, -999.0
18-05-2022, 00:29:16,    208,    0.2,   11.2,   0.00,   0.00, 1014.1,   91.7, -999.0
18-05-2022, 00:29:27,    203,    0.5,   11.3,   0.00,   0.00, 1014.1,   91.7, -999.0
18-05-2022, 00:29:36,    197,    1.0,   11.2,   0.00,   0.00, 1014.1,   91.7, -999.0
18-05-2022, 00:29:46,    188,    0.2,   11.2,   0.00,   0.00, 1014.1,   91.6, -999.0
18-05-2022, 00:29:57,    215,    0.5,   11.2,   0.00,   0.00, 1014.2,   91.6, -999.0
18-05-2022, 00:30:06,    249,    0.5,   11.2,   0.00,   0.00, 1014.2,   91.5, -999.0
18-05-2022, 00:30:16,    209,    1.4,   11.2,   0.00,   0.00, 1014.1,   91.6, -999.0
18-05-2022, 00:30:26,    212,    0.6,   11.2,   0.00,   0.00, 1014.1,   91.6, -999.0
18-05-2022, 00:30:36,    212,    0.0,   11.1,   0.00,   0.00, 1014.1,   91.4, -999.0
18-05-2022, 00:30:46,    210,    0.0,   11.1,   0.00,   0.00, 1014.1,   91.3, -999.0
18-05-2022, 00:30:56,    210,    0.0,   11.1,   0.00,   0.00, 1014.1,   91.3, -999.0
18-05-2022, 00:31:06,    210,    0.0,   11.2,   0.00,   0.00, 1014.1,   91.3, -999.0
18-05-2022, 00:31:16,    210,    0.0,   11.2,   0.00,   0.00, 1014.1,   91.4, -999.0
18-05-2022, 00:31:26,    210,    0.0,   11.2,   0.00,   0.00, 1014.1,   91.5, -999.0
18-05-2022, 00:31:36,    210,    0.0,   11.2,   0.00,   0.00, 1014.1,   91.3, -999.0
18-05-2022, 00:31:46,    217,    0.7,   11.2,   0.00,   0.00, 1014.2,   91.4, -999.0
18-05-2022, 00:31:56,    218,    0.0,   11.2,   0.00,   0.00, 1014.1,   91.3, -999.0
18-05-2022, 00:32:06,    219,    0.2,   11.2,   0.00,   0.00, 1014.1,   91.4, -999.0
18-05-2022, 00:32:15,    218,    0.3,   11.2,   0.00,   0.00, 1014.2,   91.6, -999.0
18-05-2022, 00:32:26,    220,    0.2,   11.2,   0.00,   0.00, 1014.1,   91.4, -999.0
18-05-2022, 00:32:36,    220,    0.0,   11.1,   0.00,   0.00, 1014.1,   91.3, -999.0
18-05-2022, 00:32:45,    220,    0.0,   11.1,   0.00,   0.00, 1014.1,   91.3, -999.0
18-05-2022, 00:32:55,    220,    0.0,   11.1,   0.00,   0.00, 1014.1,   91.3, -999.0
18-05-2022, 00:33:05,    275,    0.0,   11.1,   0.00,   0.00, 1014.1,   91.3, -999.0
18-05-2022, 00:33:15,    274,    0.2,   11.2,   0.00,   0.00, 1014.2,   91.6, -999.0
18-05-2022, 00:33:25,    188,    0.0,   11.2,   0.00,   0.00, 1014.1,   91.2, -999.0
18-05-2022, 00:33:35,    187,    0.0,   11.1,   0.00,   0.00, 1014.1,   91.3, -999.0
18-05-2022, 00:33:45,    188,    0.4,   11.2,   0.00,   0.00, 1014.3,   91.6, -999.0
18-05-2022, 00:33:55,    188,    0.4,   11.2,   0.00,   0.00, 1014.2,   91.5, -999.0
18-05-2022, 00:34:05,    188,    0.3,   11.2,   0.00,   0.00, 1014.3,   91.6, -999.0
18-05-2022, 00:34:15,    188,    0.2,   11.1,   0.00,   0.00, 1014.2,   91.5, -999.0
18-05-2022, 00:34:25,    188,    0.0,   11.1,   0.00,   0.00, 1014.1,   91.2, -999.0
18-05-2022, 00:34:35,    188,    0.0,   11.1,   0.00,   0.00, 1014.1,   91.3, -999.0
18-05-2022, 00:34:45,    188,    0.0,   11.1,   0.00,   0.00, 1014.2,   91.1, -999.0
18-05-2022, 00:34:55,    188,    0.0,   11.1,   0.00,   0.00, 1014.1,   91.1, -999.0
18-05-2022, 00:35:05,    188,    0.0,   11.1,   0.00,   0.00, 1014.2,   91.3, -999.0
18-05-2022, 00:35:15,    188,    0.0,   11.0,   0.00,   0.00, 1014.2,   91.2, -999.0
18-05-2022, 00:35:24,    188,    0.0,   11.0,   0.00,   0.00, 1014.1,   91.1, -999.0
18-05-2022, 00:35:35,    188,    0.0,   11.1,   0.00,   0.00, 1014.2,   91.2, -999.0
18-05-2022, 00:35:44,    219,    0.9,   11.2,   0.00,   0.00, 1014.3,   91.4, -999.0
18-05-2022, 00:35:54,    204,    0.6,   11.2,   0.00,   0.00, 1014.3,   91.4, -999.0
18-05-2022, 00:36:04,    202,    0.2,   11.1,   0.00,   0.00, 1014.3,   91.4, -999.0
18-05-2022, 00:36:14,    222,    1.2,   11.1,   0.00,   0.00, 1014.3,   91.2, -999.0
18-05-2022, 00:36:24,    245,    0.5,   11.2,   0.00,   0.00, 1014.3,   91.3, -999.0
18-05-2022, 00:36:34,    245,    0.0,   11.1,   0.00,   0.00, 1014.2,   91.0, -999.0
18-05-2022, 00:36:44,    244,    0.0,   11.0,   0.00,   0.00, 1014.2,   90.9, -999.0
18-05-2022, 00:36:54,    198,    0.1,   11.0,   0.00,   0.00, 1014.2,   91.1, -999.0
18-05-2022, 00:37:04,    198,    0.0,   11.0,   0.00,   0.00, 1014.2,   91.1, -999.0
18-05-2022, 00:37:14,    198,    0.0,   10.9,   0.00,   0.00, 1014.2,   90.9, -999.0
18-05-2022, 00:37:24,    198,    0.0,   10.9,   0.00,   0.00, 1014.1,   90.9, -999.0
18-05-2022, 00:37:34,    198,    0.0,   11.0,   0.00,   0.00, 1014.2,   90.9, -999.0
18-05-2022, 00:37:44,    208,    0.0,   11.0,   0.00,   0.00, 1014.2,   90.9, -999.0
18-05-2022, 00:37:54,    239,    0.1,   11.0,   0.00,   0.00, 1014.2,   91.0, -999.0
18-05-2022, 00:38:04,    238,    0.0,   11.0,   0.00,   0.00, 1014.2,   90.8, -999.0
18-05-2022, 00:38:14,    238,    0.0,   11.0,   0.00,   0.00, 1014.2,   90.8, -999.0
18-05-2022, 00:38:23,    238,    0.0,   11.0,   0.00,   0.00, 1014.2,   90.9, -999.0
18-05-2022, 00:38:34,    238,    0.0,   10.9,   0.00,   0.00, 1014.2,   90.8, -999.0
18-05-2022, 00:38:44,    238,    0.0,   10.9,   0.00,   0.00, 1014.2,   90.9, -999.0
18-05-2022, 00:38:53,    238,    0.0,   10.9,   0.00,   0.00, 1014.2,   90.8, -999.0
18-05-2022, 00:39:03,    238,    0.0,   10.9,   0.00,   0.00, 1014.2,   90.8, -999.0
18-05-2022, 00:39:14,    238,    0.0,   10.9,   0.00,   0.00, 1014.2,   90.8, -999.0
18-05-2022, 00:39:23,    226,    0.0,   10.9,   0.00,   0.00, 1014.2,   91.0, -999.0
18-05-2022, 00:39:33,    222,    0.0,   11.0,   0.00,   0.00, 1014.2,   91.0, -999.0
18-05-2022, 00:39:43,    223,    0.7,   11.0,   0.00,   0.00, 1014.4,   91.4, -999.0
18-05-2022, 00:39:53,    222,    0.2,   11.0,   0.00,   0.00, 1014.3,   91.2, -999.0
18-05-2022, 00:40:03,    224,    0.5,   11.0,   0.00,   0.00, 1014.4,   91.2, -999.0
18-05-2022, 00:40:13,    227,    1.3,   11.0,   0.00,   0.00, 1014.4,   91.2, -999.0
18-05-2022, 00:40:23,    227,    0.2,   11.0,   0.00,   0.00, 1014.3,   90.9, -999.0
18-05-2022, 00:40:33,    228,    0.2,   11.0,   0.00,   0.00, 1014.3,   90.9, -999.0
18-05-2022, 00:40:43,    229,    0.3,   11.0,   0.00,   0.00, 1014.4,   91.1, -999.0
18-05-2022, 00:40:53,    228,    0.1,   11.0,   0.00,   0.00, 1014.4,   90.8, -999.0
18-05-2022, 00:41:03,    229,    0.0,   10.9,   0.00,   0.00, 1014.3,   91.0, -999.0
18-05-2022, 00:41:13,    236,    0.8,   11.0,   0.00,   0.00, 1014.4,   91.3, -999.0
18-05-2022, 00:41:23,    249,    0.7,   11.0,   0.00,   0.00, 1014.4,   91.1, -999.0
18-05-2022, 00:41:32,    248,    0.3,   10.9,   0.00,   0.00, 1014.4,   90.9, -999.0
18-05-2022, 00:41:43,    235,    0.4,   11.0,   0.00,   0.00, 1014.4,   91.0, -999.0
18-05-2022, 00:41:53,    238,    0.5,   11.0,   0.00,   0.00, 1014.4,   91.0, -999.0
18-05-2022, 00:42:02,    228,    0.2,   11.0,   0.00,   0.00, 1014.4,   91.1, -999.0
18-05-2022, 00:42:12,    226,    0.0,   11.0,   0.00,   0.00, 1014.3,   90.9, -999.0
18-05-2022, 00:42:22,    228,    0.0,   10.9,   0.00,   0.00, 1014.3,   90.7, -999.0
18-05-2022, 00:42:32,    229,    0.0,   10.9,   0.00,   0.00, 1014.3,   90.9, -999.0
18-05-2022, 00:42:42,    229,    0.0,   10.9,   0.00,   0.00, 1014.3,   90.8, -999.0
18-05-2022, 00:42:52,    229,    0.0,   10.9,   0.00,   0.00, 1014.3,   90.8, -999.0
18-05-2022, 00:43:02,    229,    0.0,   10.9,   0.00,   0.00, 1014.3,   90.9, -999.0
18-05-2022, 00:43:12,    229,    0.0,   10.9,   0.00,   0.00, 1014.3,   90.7, -999.0
18-05-2022, 00:43:22,    229,    0.0,   10.9,   0.00,   0.00, 1014.3,   90.7, -999.0
18-05-2022, 00:43:32,    229,    0.0,   10.9,   0.00,   0.00, 1014.3,   90.8, -999.0
18-05-2022, 00:43:42,    230,    0.0,   10.9,   0.00,   0.00, 1014.3,   90.8, -999.0
18-05-2022, 00:43:52,    229,    0.0,   10.8,   0.00,   0.00, 1014.3,   90.8, -999.0
18-05-2022, 00:44:02,    229,    0.0,   10.8,   0.00,   0.00, 1014.3,   90.8, -999.0
18-05-2022, 00:44:12,    229,    0.0,   10.8,   0.00,   0.00, 1014.3,   90.8, -999.0
18-05-2022, 00:44:22,    229,    0.0,   10.8,   0.00,   0.00, 1014.3,   90.9, -999.0
18-05-2022, 00:44:32,    229,    0.0,   10.9,   0.00,   0.00, 1014.3,   90.8, -999.0
18-05-2022, 00:44:41,    229,    0.0,   10.8,   0.00,   0.00, 1014.3,   90.8, -999.0
18-05-2022, 00:44:52,    229,    0.0,   10.7,   0.00,   0.00, 1014.3,   90.7, -999.0
18-05-2022, 00:45:02,    230,    0.0,   10.8,   0.00,   0.00, 1014.3,   90.6, -999.0
18-05-2022, 00:45:11,    229,    0.0,   10.8,   0.00,   0.00, 1014.3,   90.7, -999.0
18-05-2022, 00:45:21,    230,    0.0,   10.8,   0.00,   0.00, 1014.3,   90.8, -999.0
18-05-2022, 00:45:31,    230,    0.0,   10.8,   0.00,   0.00, 1014.3,   90.8, -999.0
18-05-2022, 00:45:41,    217,    0.0,   10.8,   0.00,   0.00, 1014.3,   90.6, -999.0
18-05-2022, 00:45:51,    217,    0.0,   10.8,   0.00,   0.00, 1014.3,   90.7, -999.0
18-05-2022, 00:46:01,    209,    0.0,   10.8,   0.00,   0.00, 1014.3,   90.9, -999.0
18-05-2022, 00:46:11,    205,    0.0,   10.8,   0.00,   0.00, 1014.3,   90.9, -999.0
18-05-2022, 00:46:21,    207,    0.0,   10.8,   0.00,   0.00, 1014.3,   90.8, -999.0
18-05-2022, 00:46:31,    207,    0.0,   10.8,   0.00,   0.00, 1014.3,   90.9, -999.0
18-05-2022, 00:46:41,    207,    0.0,   10.8,   0.00,   0.00, 1014.3,   90.8, -999.0